Weather History for Hollywood, FL

Change the Weather History Date:

Thursday, November 22, 2012

  Actual Average (KFLL) Record (KFLL)
Temperature  
Mean Temperature 66 °F 75 °F  
Max Temperature 75 °F 81 °F 87 °F (1947)
Min Temperature 57 °F 68 °F 43 °F (1952)
Degree Days  
Heating Degree Days 0 0  
Month to date heating degree days 0  
Since 1 July heating degree days 0  
Cooling Degree Days 1 10  
Month to date cooling degree days 246  
Year to date cooling degree days 4440  
Growing Degree Days 16 (Base 50)    
Moisture  
Dew Point 49 °F    
Average Humidity 58    
Maximum Humidity 75    
Minimum Humidity 38    
Precipitation  
Precipitation 0.00 in 0.07 in 1.15 in (1985)
Month to date precipitation 2.51  
Year to date precipitation 58.99  
Snow  
Snow 0.00 in - - ()
Month to date snowfall  
Since 1 July snowfall  
Since 1 September snowfall  
Snow Depth -    
Sea Level Pressure  
Sea Level Pressure 30.07 in    
Wind  
Wind Speed 12 mph (NNW)    
Max Wind Speed 18 mph    
Max Gust Speed 26 mph    
Visibility 10 miles    
Events      
T = Trace of Precipitation, MM = Missing Value Source: NWS Daily Summary

Daily Weather History Graph

Daily Weather History Graph

Search for Another Location

Airport:

Trip Planner

Search our weather history database for the weather conditions in past years. The results will help you decide how hot, cold, wet, or windy it might be!

Date:

Astronomy

Nov. 22, 2012 Rise Set
Actual Time 6:44 AM EST 5:29 PM EST
Civil Twilight 6:20 AM EST 5:54 PM EST
Nautical Twilight 5:51 AM EST 6:22 PM EST
Astronomical Twilight 5:24 AM EST 6:50 PM EST
Moon 1:48 PM EST 1:32 AM EST
Length of Visible Light 11h 34m
Length of Day
10h 44m
Waxing Gibbous, 71% of the Moon is Illuminated
Nov 22
Waxing Gibbous
Nov 28
Full
Dec 6
Last Quarter
Dec 13
New
Dec 20
First Quarter

Hourly Weather History & Observations

Time (EST) Temp. Dew Point Humidity Pressure Visibility Wind Dir Wind Speed Gust Speed Precip Events Conditions
12:53 AM 59.0 °F 51.1 °F 75% 30.05 in 10.0 mi NNW 8.1 mph - N/A   Clear
1:53 AM 57.9 °F 50.0 °F 75% 30.04 in 10.0 mi NNW 6.9 mph - N/A   Clear
2:53 AM 57.9 °F 48.0 °F 70% 30.03 in 10.0 mi NNW 9.2 mph - N/A   Clear
3:53 AM 57.9 °F 46.0 °F 65% 30.04 in 10.0 mi NNW 13.8 mph 20.7 mph N/A   Clear
4:53 AM 57.9 °F 48.9 °F 72% 30.03 in 10.0 mi NNW 12.7 mph - N/A   Clear
5:53 AM 57.9 °F 50.0 °F 75% 30.04 in 10.0 mi NNW 10.4 mph - N/A   Clear
6:53 AM 57.9 °F 50.0 °F 75% 30.06 in 9.0 mi NNW 12.7 mph - N/A   Clear
7:53 AM 61.0 °F 48.9 °F 64% 30.07 in 10.0 mi NNW 16.1 mph 23.0 mph N/A   Clear
8:53 AM 64.0 °F 51.1 °F 63% 30.09 in 9.0 mi NNW 18.4 mph 26.5 mph N/A   Clear
9:53 AM 68.0 °F 52.0 °F 56% 30.10 in 10.0 mi NNW 13.8 mph 23.0 mph N/A   Clear
10:53 AM 71.1 °F 53.1 °F 53% 30.09 in 10.0 mi NNW 17.3 mph 23.0 mph N/A   Clear
11:53 AM 73.0 °F 53.1 °F 49% 30.07 in 10.0 mi NW 16.1 mph 23.0 mph N/A   Clear
12:53 PM 73.9 °F 53.1 °F 48% 30.04 in 10.0 mi NNW 17.3 mph 24.2 mph N/A   Clear
1:53 PM 75.0 °F 52.0 °F 44% 30.03 in 10.0 mi North 15.0 mph 23.0 mph N/A   Clear
2:53 PM 75.0 °F 52.0 °F 44% 30.03 in 10.0 mi NNW 15.0 mph - N/A   Partly Cloudy
3:53 PM 73.9 °F 48.9 °F 41% 30.04 in 10.0 mi NNW 15.0 mph 23.0 mph N/A   Clear
4:53 PM 72.0 °F 45.0 °F 38% 30.06 in 10.0 mi North 16.1 mph - N/A   Clear
5:53 PM 68.0 °F 45.0 °F 43% 30.08 in 10.0 mi NNW 9.2 mph - N/A   Clear
6:53 PM 66.0 °F 46.9 °F 50% 30.11 in 10.0 mi NNW 15.0 mph - N/A   Clear
7:53 PM 64.0 °F 45.0 °F 50% 30.12 in 10.0 mi North 16.1 mph 21.9 mph N/A   Clear
8:53 PM 63.0 °F 46.0 °F 54% 30.13 in 10.0 mi NNW 13.8 mph - N/A   Clear
9:53 PM 61.0 °F 46.9 °F 60% 30.14 in 10.0 mi NNW 16.1 mph 25.3 mph N/A   Clear
10:53 PM 59.0 °F 46.9 °F 64% 30.13 in 10.0 mi NNW 13.8 mph - N/A   Clear
11:53 PM 57.9 °F 46.9 °F 67% 30.12 in 10.0 mi NNW 10.4 mph - N/A   Clear